Regional Weather Roundup
Issued by NWS

Home | Current Version | Previous Version | Graphics & Text | Print | Product List | Glossary On
Versions: 1 2 3 4 5 6 7 8 9 10 11 12 13 14 15 16 17 18 19 20 21 22 23 24 25 26 27 28
000
ASUS45 KBOI 200010
RWRID

IDAHO REGIONAL WEATHER ROUNDUP
NATIONAL WEATHER SERVICE BOISE ID
600 PM MDT SAT MAY 19 2018

NOTE: "FAIR" INDICATES FEW OR NO CLOUDS BELOW 12000 FEET
WITH NO SIGNIFICANT WEATHER AND/OR OBSTRUCTIONS TO VISIBILITY

IDZ012-014-200100-
SOUTHWEST IDAHO


CITY           SKY/WX    TMP DP  RH WIND       PRES   REMARKS
BOISE          CLOUDY    77  40  26 N3        29.86S
CALDWELL       CLOUDY    79  44  28 CALM      29.85F
MOUNTAIN HOME  CLOUDY    76  41  28 SW17G25   29.87S
$$

IDZ016-017-200100-
SOUTHCENTRAL IDAHO


CITY           SKY/WX    TMP DP  RH WIND       PRES   REMARKS
BURLEY         SUNNY     76  31  19 NW3       29.90F
JEROME         SUNNY     73  33  23 W6        29.92S
TWIN FALLS     SUNNY     73  30  20 W6        29.92F
$$

IDZ019>023-200100-
SOUTHEAST IDAHO


CITY           SKY/WX    TMP DP  RH WIND       PRES   REMARKS
IDAHO FALLS    MOSUNNY   65  44  46 SE12      30.00F
POCATELLO      MOSUNNY   70  44  39 E8        29.96F
REXBURG        MOSUNNY   67  38  34 S10       29.99F
$$

IDZ006-010-011-018-031-032-200100-
CENTRAL IDAHO MOUNTAINS


CITY           SKY/WX    TMP DP  RH WIND       PRES   REMARKS
MCCALL         PTSUNNY   65  39  38 W6        29.95F
HAILEY         MOSUNNY   63  41  45 S7        29.99F
STANLEY          N/A     62  33  33 NW9       30.02F
SALMON         MOSUNNY   68  43  40 VRB3      29.94F
CHALLIS        MOSUNNY   72  33  24 E5        29.94F
$$

IDZ002-004-006-007-026-200100-
NORTHERN IDAHO


CITY           SKY/WX    TMP DP  RH WIND       PRES   REMARKS
LEWISTON       MOSUNNY   77  52  41 NE5       29.88F
LOWELL           N/A     77  52  41 CALM      29.85F
COEUR D`ALENE  SUNNY     71  44  37 NW5       29.95F
MULLAN PASS    PTSUNNY   48  38  68 CALM      30.05F
$$




USA.gov is the U.S. government's official web portal to all federal, state and local government web resources and services.